Location: Huberhof
(49.2050°N, 7.4980°E)
Time: 04:41:22
(UTC+00:00)

USA 307 - Pass Details

Date: 29 October 2020
Orbit: 569 x 579 km, 54.0° (Epoch: 23 November)

Event Time Altitude Azimuth Distance (km) Brightness Sun altitude
Rises 16:59:32 0° 295° (WNW) 2,792 7.4 -8.1°
Reaches altitude 10° 17:01:48 10° 297° (WNW) 1,889 6.4 -8.5°
Maximum altitude 17:06:06 70° 22° (NNE) 613 2.9 -9.2°
Enters shadow 17:10:18 10° 107° (ESE) 1,853 5.0 -9.8°
